EW8868 Weather Reports


Display with metric or nautical units.
time (UTC)temp
F
wind
direction
speed
MPH
gust
MPH
rain 1hr
in
rain 24hr
in
rain mn
in
humidity
%
barometer
mb
20260510213107 77 160 0.0 0.0 0.00 0.00 0.03 56 1015.0
20260510211556 77 160 0.0 0.0 0.00 0.00 0.02 56 1015.0
20260510210051 77 159 0.0 0.0 0.00 0.00 0.02 55 1015.0
20260510204553 77 159 0.0 0.0 0.00 0.00 0.02 54 1015.1
20260510203043 77 159 0.0 0.0 0.00 0.00 0.02 53 1015.0
20260510201538 76 160 0.0 0.0 0.00 0.00 0.02 52 1015.2
20260510200034 76 160 0.0 0.0 0.00 0.00 0.02 50 1015.4
20260510194530 75 160 0.0 0.0 0.00 0.00 0.02 49 1015.6
20260510193025 75 160 0.0 0.0 0.00 0.00 0.02 52 1015.5
20260510191528 75 159 0.0 0.0 0.00 0.00 0.02 51 1015.6
20260510190031 75 159 0.0 0.0 0.00 0.00 0.02 46 1015.9
20260510184513 75 159 0.0 0.0 0.00 0.00 0.02 45 1016.0
20260510183008 76 160 0.0 0.0 0.00 0.00 0.02 45 1016.0
20260510181510 75 160 0.0 0.0 0.00 0.00 0.02 46 1016.0
20260510174557 74 123 0.0 0.0 0.00 0.00 0.02 38 1016.5
20260510173108 74 123 0.0 0.0 0.00 0.00 0.02 37 1016.9
20260510171547 75 123 0.0 0.0 0.00 0.00 0.02 36 1016.9
20260510170043 73 152 0.0 0.0 0.00 0.00 0.02 20 1016.9
20260510164558 73 152 0.0 0.0 0.00 0.00 0.02 26 1017.1
20260510163034 73 83 0.0 0.0 0.00 0.00 0.02 29 1017.1
20260510161529 73 82 0.0 0.0 0.00 0.00 0.02 18 1017.1
20260510160024 73 171 0.0 0.0 0.00 0.00 0.02 18 1017.1
20260510154521 71 173 0.0 0.0 0.00 0.00 0.02 8 1017.0
20260510153030 71 173 0.0 0.0 0.00 0.00 0.02 100 1017.1
20260510151511 71 174 0.0 0.0 0.00 0.00 0.02 100 1017.1
20260510150007 68 174 0.0 0.0 0.00 0.00 0.02 100 1017.2
20260510144506 67 174 0.0 0.0 0.00 0.00 0.02 100 1017.2
20260510143059 65 174 0.0 0.0 0.00 0.00 0.01 100 1017.3
20260510141554 65 174 0.0 0.0 0.00 0.00 0.01 100 1017.5
20260510140050 64 174 0.0 0.0 0.00 0.00 0.01 100 1017.5
20260510134552 64 173 0.0 0.0 0.00 0.00 0.01 100 1017.4
20260510133040 63 173 0.0 0.0 0.00 0.00 0.01 100 1017.3
20260510131537 63 173 0.0 0.0 0.00 0.00 0.01 100 1017.0
20260510130032 63 174 0.0 0.0 0.00 0.00 0.01 100 1017.0
20260510124527 63 173 0.0 0.0 0.00 0.00 0.01 100 1016.6
20260510123023 63 173 0.0 0.0 0.00 0.00 0.01 100 1016.5
20260510121519 63 174 0.0 0.0 0.00 0.00 0.01 100 1016.1
20260510120014 63 173 0.0 0.0 0.00 0.00 0.01 100 1015.8
20260510114510 63 174 0.0 0.0 0.00 0.00 0.01 100 1015.7
20260510113009 63 173 0.0 0.0 0.00 0.00 0.01 100 1015.3
20260510111501 63 173 0.0 0.0 0.00 0.00 0.01 100 1015.0
20260510110101 63 173 0.0 0.0 0.00 0.00 0.01 100 1015.0
20260510104608 63 173 0.0 0.0 0.00 0.00 0.01 100 1014.8
20260510103052 63 173 0.0 0.0 0.00 0.00 0.01 100 1014.5
20260510101544 63 173 0.0 0.0 0.00 0.00 0.01 100 1014.4
20260510100051 63 173 0.0 0.0 0.00 0.00 0.01 100 1014.2
20260510094544 63 173 0.0 0.0 0.00 0.00 0.01 100 1014.0
20260510093031 63 173 0.0 0.0 0.00 0.00 0.01 100 1013.8
20260510091528 62 174 0.0 0.0 0.00 0.00 0.01 100 1013.7
20260510090022 62 174 0.0 0.0 0.00 0.00 0.01 100 1013.6
20260510084517 62 174 0.0 0.0 0.00 0.00 0.01 100 1013.5
20260510083015 62 174 0.0 0.0 0.00 0.00 0.01 100 1013.4
20260510081509 62 174 0.0 0.0 0.00 0.00 0.01 100 1013.3
20260510080008 61 174 0.0 0.0 0.00 0.00 0.01 100 1013.2
20260510074624 61 174 0.0 0.0 0.00 0.00 0.01 100 1013.0
20260510073056 60 174 0.0 0.0 0.00 0.00 0.01 100 1013.0
20260510071558 60 174 0.0 0.0 0.00 0.00 0.01 100 1013.3
20260510070047 59 174 0.0 0.0 0.00 0.00 0.01 100 1013.4
20260510064602 59 174 0.0 0.0 0.00 0.00 0.01 100 1013.4
20260510063039 59 174 0.0 0.0 0.00 0.00 0.01 100 1013.4
20260510061537 60 174 0.0 0.0 0.00 0.00 0.01 100 1013.5
20260510060034 60 174 0.0 0.0 0.00 0.00 0.01 100 1013.6
20260510054526 60 174 0.0 0.0 0.00 0.00 0.01 100 1013.7
20260510053021 60 174 0.0 0.0 0.00 0.00 0.00 100 1013.7
20260510051520 60 174 0.0 0.0 0.00 0.00 0.00 100 1013.6
20260510050012 61 174 0.0 0.0 0.00 0.00 0.02 100 1013.8
20260510044514 61 174 0.0 0.0 0.00 0.00 0.02 100 1013.8
20260510043004 61 174 0.0 0.0 0.00 0.00 0.02 100 1013.9
20260510041611 61 174 0.0 0.0 0.00 0.00 0.02 100 1013.9
20260510040055 62 174 0.0 0.0 0.00 0.00 0.02 100 1013.8
20260510034551 62 174 0.0 0.0 0.00 0.00 0.02 100 1013.9
20260510033048 63 174 0.0 0.0 0.00 0.00 0.02 100 1013.9
20260510031542 63 174 0.0 0.0 0.00 0.00 0.02 100 1013.9
20260510030037 63 174 0.0 0.0 0.00 0.00 0.02 100 1013.8
20260510024539 64 174 0.0 0.0 0.00 0.00 0.02 100 1013.7
20260510023029 64 174 0.0 0.0 0.00 0.00 0.02 100 1013.5
20260510021523 64 173 0.0 0.0 0.00 0.00 0.02 100 1013.4
20260510020019 65 173 0.0 0.0 0.00 0.00 0.02 100 1013.0
20260510014521 65 173 0.0 0.0 0.00 0.00 0.02 100 1012.9
20260510013011 65 173 0.0 0.0 0.00 0.00 0.02 100 1012.8
20260510011508 66 173 0.0 0.0 0.00 0.00 0.02 100 1012.5
20260510010002 66 173 0.0 0.0 0.00 0.00 0.02 100 1012.2
20260510004603 67 173 0.0 0.0 0.00 0.00 0.02 100 1012.1
20260510003056 67 173 0.0 0.0 0.00 0.00 0.02 100 1011.9
20260510001549 68 173 0.0 0.0 0.00 0.00 0.02 100 1011.9
20260510000046 69 173 0.0 0.0 0.00 0.00 0.02 100 1011.7
20260509234558 69 173 0.0 0.0 0.00 0.00 0.02 100 1011.4
20260509233036 69 173 0.0 0.0 0.00 0.00 0.02 100 1011.2
20260509231534 70 173 0.0 0.0 0.00 0.00 0.02 100 1011.1
20260509230028 70 173 0.0 0.0 0.00 0.00 0.02 100 1011.1
20260509224523 71 173 0.0 0.0 0.00 0.00 0.02 100 1011.1
20260509223021 71 173 0.0 0.0 0.00 0.00 0.02 5 1010.9
20260509221527 71 173 0.0 0.0 0.00 0.00 0.02 11 1010.7
20260509220010 72 173 0.0 0.0 0.00 0.00 0.02 17 1010.8
20260509214505 72 203 0.0 0.0 0.00 0.00 0.02 27 1010.6